GFSGL_500_spd_075.txt.gz
Wind_Speed
14 9 3 2 3 5 7 9 10 10 8 7 8 9 10 15 14 15 16 15 14 15 16 18 18 20 19 20 20 19 17 16 16 14 13 12 11 11 12 12 12 11 11
0 3 3 3 6 8 8 9 10 11 10 7 5 8 9 13 17 15 13 14 16 16 15 15 16 17 20 20 19 19 19 17 16 14 13 13 13 13 14 14 15 15 14
10 7 7 8 9 10 8 9 12 14 11 10 10 9 9 12 17 15 13 11 13 15 17 19 18 19 19 20 20 20 19 18 15 15 15 16 17 17 16 15 16 16 16
17 18 14 12 14 13 12 13 15 15 16 13 11 10 11 12 11 16 21 19 18 15 15 17 18 19 19 20 20 21 20 20 19 18 20 21 21 22 21 19 19 18 17
22 25 19 16 16 15 15 15 15 15 15 14 14 11 10 12 16 16 17 20 22 20 16 16 18 21 19 21 23 24 23 23 23 23 24 24 24 23 23 23 21 20 20
21 15 29 20 14 17 18 18 17 16 16 14 15 15 10 12 16 16 18 19 18 20 21 19 19 19 21 23 25 26 27 28 29 30 28 27 25 24 24 24 24 23 22
22 26 25 22 25 21 17 18 17 17 15 12 17 17 13 10 10 11 13 13 14 17 18 19 18 19 20 21 23 24 26 28 28 28 28 26 26 25 26 26 26 25 27
25 23 24 26 28 15 17 18 18 18 16 13 19 19 15 12 10 9 12 14 15 15 17 16 16 18 20 20 21 24 26 26 26 28 28 28 28 29 29 29 30 30 29
29 27 28 23 20 12 18 20 19 18 20 17 13 18 16 14 12 13 15 13 13 15 16 17 17 16 17 21 22 22 23 24 25 26 27 28 29 30 30 30 29 28 27
33 30 29 28 25 21 21 22 22 24 19 20 18 19 18 16 13 14 16 16 15 13 15 18 18 18 18 19 21 23 25 26 28 28 28 28 28 27 26 26 27 28 28
38 33 31 30 30 27 27 23 22 26 26 22 21 22 21 19 17 17 17 18 18 17 14 14 16 17 18 19 18 19 19 20 22 22 22 23 22 22 23 24 25 29 28
36 35 34 32 32 30 29 28 28 27 32 29 24 25 27 25 19 20 21 20 19 20 20 17 18 21 23 23 24 21 21 22 23 25 26 26 26 27 28 30 30 30 31
35 36 35 35 35 32 35 33 31 29 29 30 30 31 31 29 24 22 22 24 22 22 23 22 19 22 22 23 23 26 26 26 28 29 30 30 31 32 34 35 36 36 36
37 37 38 37 36 32 34 31 35 35 32 30 29 26 25 26 26 25 25 25 24 24 25 26 26 27 28 27 28 29 29 27 27 28 29 30 32 32 32 34 38 41 39
36 36 36 36 35 36 34 32 33 34 34 33 32 30 32 30 26 32 28 27 27 29 29 28 26 31 32 33 33 31 32 33 33 32 30 31 32 30 29 31 30 30 32
37 37 37 40 39 39 39 38 40 40 40 39 39 37 29 36 33 32 31 32 32 33 32 33 33 33 33 34 35 34 34 35 36 35 36 32 29 34 34 35 37 37 38
39 39 41 44 44 44 45 45 48 47 44 34 37 41 45 41 37 35 35 36 38 38 36 34 36 37 37 36 37 37 36 38 38 39 36 42 38 38 41 40 41 39 40
43 44 46 50 52 52 54 52 50 49 47 37 39 44 40 37 33 37 39 39 40 40 41 38 37 41 42 40 39 40 39 40 40 41 41 42 42 42 43 40 38 47 49
41 40 42 43 42 40 36 36 38 40 45 43 48 46 39 34 33 37 39 41 41 42 42 40 40 42 42 42 41 41 41 42 43 42 42 44 46 46 43 46 50 49 50
32 31 27 33 43 50 38 37 51 34 44 45 40 45 36 32 34 36 38 41 43 43 43 42 39 40 39 38 39 40 40 41 42 44 45 46 48 50 48 48 48 46 53
27 24 22 24 29 33 42 37 42 47 38 34 30 30 34 31 32 40 37 39 41 44 44 42 40 40 38 38 40 42 43 44 45 46 47 48 49 49 49 49 47 46 44
26 25 26 26 22 29 32 38 34 33 34 32 35 38 39 42 38 37 40 41 40 37 41 41 39 38 38 39 40 42 40 40 43 46 46 48 49 50 51 51 52 52 54
35 22 29 35 31 33 33 34 31 29 27 37 42 35 34 34 29 32 33 34 35 35 35 36 38 37 37 38 39 40 43 47 48 48 50 50 51 53 54 53 54 55 55
34 33 35 32 34 36 38 36 38 41 37 29 32 35 31 30 31 33 35 34 35 36 37 37 37 41 42 43 44 44 43 43 44 46 47 48 50 49 50 49 50 52 54
22 20 23 37 37 31 32 32 37 38 38 41 37 32 31 32 32 31 33 35 37 38 37 39 39 39 38 38 40 39 39 40 42 43 45 47 48 48 48 48 49 49 50
28 23 24 25 24 26 27 28 30 33 31 32 30 31 30 29 32 33 33 34 35 36 35 35 35 35 35 36 39 41 43 45 46 46 47 47 46 46 47 48 48 48 49

GFSGL_500_spd_078.txt.gz
Wind_Speed
14 14 7 7 4 4 6 10 13 13 13 11 12 10 7 11 12 13 14 12 13 16 17 18 18 19 20 21 21 23 28 24 20 21 19 16 14 13 12 13 13 13 12
11 15 8 6 5 7 8 12 13 14 13 13 13 12 11 9 11 13 17 17 16 17 15 16 15 14 17 18 20 22 20 20 19 9 15 15 14 13 13 14 16 15 15
6 16 15 12 8 6 7 10 12 15 15 13 12 14 14 12 11 14 17 14 14 15 16 16 17 16 16 16 19 19 20 19 15 16 16 14 14 15 17 18 18 18 17
17 13 24 15 13 10 6 8 10 15 16 16 15 12 14 14 13 12 14 18 20 19 19 18 19 17 16 16 19 19 20 15 16 20 20 18 18 18 21 22 23 22 20
15 19 23 16 14 11 10 10 9 13 17 16 17 11 11 15 14 15 16 15 16 19 21 20 19 19 21 22 18 18 19 18 23 25 24 23 23 25 26 27 25 24 22
18 18 21 22 16 17 20 15 11 11 13 14 13 14 11 11 13 14 15 16 17 18 18 18 20 21 21 21 22 21 21 22 25 25 26 27 28 28 29 27 26 25 24
21 18 20 19 21 22 18 18 15 11 12 14 13 17 8 10 11 14 14 14 16 16 17 21 22 20 22 23 22 23 23 24 25 26 27 26 26 26 26 26 26 26 25
25 21 21 19 18 18 18 11 15 12 14 14 14 15 11 8 10 14 15 15 15 15 17 19 21 20 20 21 23 23 24 25 26 25 25 26 26 26 27 27 28 29 28
34 29 26 20 19 17 16 12 14 14 16 17 19 15 14 13 11 13 16 16 15 15 16 18 19 18 19 20 20 23 24 24 24 25 24 24 24 24 24 25 26 26 25
42 41 34 27 23 18 19 19 19 17 17 20 22 24 17 16 17 16 17 18 18 17 16 16 18 18 18 18 19 20 22 22 24 24 23 23 23 23 23 21 19 18 21
38 44 42 34 27 22 21 22 22 19 20 22 23 24 23 20 21 21 22 21 21 20 18 19 20 19 17 18 17 17 17 20 21 22 22 22 22 22 21 20 21 22 22
31 46 41 33 26 23 23 24 26 24 22 22 22 22 25 25 24 25 26 24 24 22 20 20 22 23 21 23 22 21 22 22 22 25 26 26 26 26 26 26 25 26 26
17 34 46 24 21 24 26 25 25 27 26 22 23 26 25 27 29 31 31 31 28 27 23 24 24 25 25 25 25 25 25 25 24 22 23 25 26 28 30 31 30 31 31
38 31 22 15 22 27 27 27 27 27 28 26 23 27 26 26 28 29 30 32 32 28 25 27 26 27 28 28 29 30 29 29 29 29 28 29 29 27 27 30 30 29 25
37 32 27 27 29 30 29 27 29 28 30 29 31 31 29 33 31 31 37 38 37 27 26 28 29 31 30 31 30 32 32 32 33 32 31 32 32 32 31 31 30 32 32
40 38 34 31 29 35 35 35 35 30 35 38 35 35 36 35 34 36 37 30 28 27 29 32 32 33 35 36 36 34 35 36 35 34 34 33 33 34 34 34 32 34 36
43 40 38 35 34 34 33 35 38 39 41 41 39 45 45 43 37 40 40 35 34 33 36 36 36 36 35 37 37 38 36 36 36 37 35 35 34 35 35 36 37 37 38
44 43 41 40 38 37 39 40 40 43 45 48 48 48 45 40 40 42 43 48 43 40 38 37 36 37 38 37 37 38 38 40 39 36 36 36 37 38 38 38 39 44 44
34 34 37 38 38 38 38 41 42 42 37 35 39 43 37 33 42 46 45 51 52 40 35 34 38 37 39 40 38 35 37 38 38 36 36 36 38 40 43 44 44 47 45
27 28 27 29 32 34 36 43 47 49 49 41 35 45 50 42 35 41 41 40 36 32 32 34 35 35 37 38 37 35 36 37 37 37 37 38 40 40 43 45 48 48 48
29 28 26 29 30 33 33 37 29 35 36 33 37 28 30 32 29 30 32 31 30 30 34 33 31 32 31 33 33 32 32 34 35 36 37 37 39 41 43 46 47 49 50
29 28 26 28 31 32 33 31 31 31 30 30 27 30 31 28 25 30 39 43 41 36 33 29 27 29 31 32 32 34 35 36 36 38 40 41 43 46 47 47 48 48 49
34 31 27 21 18 25 24 30 31 34 30 29 24 20 27 23 26 31 36 40 39 29 26 28 29 30 32 33 34 36 39 41 42 43 43 41 42 43 44 46 46 46 46
32 32 37 41 45 38 30 32 22 27 28 33 33 36 25 30 33 32 31 31 30 30 29 29 31 34 37 38 39 41 40 39 39 39 39 39 41 43 45 47 48 48 48
27 28 26 24 28 36 29 25 25 26 31 28 28 30 32 30 29 26 26 25 27 30 31 32 33 35 36 35 34 35 36 36 38 41 44 44 45 45 46 47 46 44 44
25 24 23 22 22 22 23 22 24 25 24 27 29 29 32 31 30 28 28 27 31 33 32 32 31 31 31 31 33 36 39 42 43 44 44 44 43 41 40 41 44 46 48

GFSGL_500_spd_081.txt.gz
Wind_Speed
28 18 12 3 4 4 2 5 8 9 9 8 8 8 9 8 10 11 14 14 15 14 15 15 16 20 22 23 23 24 25 27 27 28 27 26 20 15 14 13 12 12 13
24 4 7 5 7 6 5 5 7 8 8 8 9 8 7 7 6 9 12 14 15 14 14 16 14 15 16 19 18 19 22 26 29 25 23 28 11 11 10 11 13 14 15
18 6 9 15 13 11 10 7 9 10 10 9 10 10 9 8 8 8 10 13 14 14 11 11 11 13 15 15 14 14 16 16 16 13 15 10 12 13 13 14 14 15 16
15 12 10 16 19 11 12 10 13 14 13 10 12 10 9 10 6 8 8 10 14 15 18 18 14 13 14 14 14 15 17 19 18 15 9 12 17 17 18 18 19 18 19
16 15 15 14 14 11 11 15 16 14 14 13 13 10 8 11 7 5 9 11 11 14 15 16 16 16 16 16 18 18 17 17 18 17 16 19 22 23 23 24 25 24 24
19 20 18 19 18 18 17 20 18 17 14 12 13 11 8 9 9 4 5 8 9 11 14 17 18 16 16 17 18 18 19 19 21 21 24 27 29 30 30 30 30 29 27
26 27 27 26 25 24 23 23 15 14 14 13 14 13 13 8 10 7 3 3 7 8 11 15 15 17 19 18 18 18 19 20 22 23 25 27 28 29 29 29 28 28 26
32 33 34 31 28 26 25 22 17 12 14 16 16 16 12 13 13 12 10 5 7 8 11 11 11 13 16 18 18 18 19 21 22 23 24 24 25 25 26 27 28 28 28
36 38 41 38 34 25 24 26 22 15 15 19 21 20 17 13 14 14 13 11 12 11 10 10 12 11 12 15 18 18 19 19 18 20 22 22 22 23 23 24 24 24 25
42 42 45 54 37 26 25 24 28 23 19 14 16 16 20 19 17 18 18 16 16 15 14 13 12 13 13 11 15 18 20 20 18 17 18 18 18 17 16 16 17 18 17
44 48 49 61 60 59 46 30 25 28 22 19 17 16 15 16 19 21 21 20 20 18 18 18 18 14 16 17 16 18 17 21 21 18 18 19 19 19 20 20 19 19 20
49 50 52 58 73 58 57 32 24 27 25 22 19 19 18 16 17 21 23 23 24 24 24 22 21 18 21 20 20 19 20 22 23 22 21 22 24 25 24 23 23 23 23
50 50 49 49 42 16 39 28 24 27 25 24 21 21 21 20 22 23 20 24 27 28 32 27 26 25 24 23 24 23 23 22 23 24 24 23 23 24 25 24 23 24 24
47 47 43 33 29 6 17 19 22 23 25 23 23 23 22 23 27 22 19 22 25 32 34 33 30 25 26 27 25 24 25 27 28 28 25 24 25 25 27 29 30 27 26
48 43 38 29 27 31 20 19 24 23 23 32 29 27 24 26 33 24 27 23 26 19 28 30 28 23 23 27 28 28 29 31 33 33 32 29 27 28 27 28 31 33 30
45 43 37 31 26 32 32 33 33 24 29 32 35 30 23 32 34 32 31 30 30 30 34 33 29 29 28 29 30 30 33 34 31 32 34 33 32 32 32 30 30 32 34
44 41 36 32 31 34 37 34 33 31 32 33 36 35 32 32 33 36 36 38 33 35 31 31 39 35 34 30 31 32 32 32 34 34 34 34 33 32 33 34 35 33 34
38 36 34 33 33 34 37 37 34 34 33 36 37 38 36 34 33 40 44 41 33 28 31 35 40 42 40 33 31 31 34 34 30 31 31 32 32 32 34 34 37 38 40
27 28 27 26 28 29 33 35 34 32 35 36 35 36 40 32 34 33 32 32 29 31 32 37 41 39 32 25 24 26 27 28 30 31 33 35 36 36 38 39 40 42 44
25 25 22 23 23 23 24 22 23 24 27 28 28 36 43 50 52 36 32 25 26 26 23 25 23 24 26 25 26 28 28 28 30 33 35 36 37 39 40 42 45 47 48
25 25 25 23 21 23 21 19 25 28 26 33 29 29 26 24 29 26 24 23 20 21 22 26 30 40 34 27 28 28 28 30 31 34 36 37 40 41 43 45 47 47 47
26 23 28 27 26 27 23 23 25 24 29 26 23 21 23 24 22 24 21 22 26 28 28 28 28 33 28 25 27 29 32 34 36 38 39 40 42 44 44 45 45 44 45
22 24 22 23 26 27 27 26 17 18 19 16 17 18 23 22 17 16 15 17 22 26 29 29 28 28 29 29 32 34 37 39 40 40 41 42 40 39 40 41 43 45 47
26 25 24 22 18 21 27 28 32 38 34 23 18 20 20 18 18 19 25 31 28 25 26 28 27 29 32 34 35 37 38 39 38 36 36 37 37 39 43 45 46 48 49
27 27 25 22 20 20 21 21 23 22 19 24 31 31 29 26 29 28 27 30 28 27 26 28 31 31 32 33 33 33 33 33 34 35 38 40 42 43 44 43 42 41 40
22 21 20 20 20 21 22 22 22 23 22 23 25 26 24 24 26 27 27 27 26 25 25 25 28 29 29 30 30 30 32 35 38 40 42 42 42 39 38 40 42 44 46

GFSGL_500_spd_084.txt.gz
Wind_Speed
21 21 14 19 13 9 6 6 8 8 6 5 6 6 6 5 8 13 14 17 17 16 16 17 16 17 20 22 24 25 25 25 25 27 28 29 25 30 24 13 14 13 12
16 17 13 14 16 13 12 11 10 10 9 8 9 9 6 6 7 5 7 10 13 15 16 15 15 15 16 17 18 19 20 20 19 21 20 27 31 29 22 13 12 11 11
13 13 16 14 19 14 16 15 13 15 14 11 11 12 12 7 7 6 7 9 13 17 17 14 11 11 13 14 15 14 13 14 15 14 20 22 29 22 9 12 12 12 11
13 12 11 12 14 16 12 14 16 19 19 15 14 11 11 7 6 7 9 9 9 11 13 15 14 15 14 13 14 15 15 15 16 18 17 12 15 9 11 13 14 16 17
14 15 12 11 12 13 14 16 17 19 20 17 15 11 9 8 7 6 9 13 13 12 14 13 14 15 16 15 15 17 17 17 18 17 16 15 13 12 16 18 19 21 21
18 20 19 20 20 21 20 18 21 19 17 19 19 15 8 12 8 7 8 9 11 10 11 12 14 16 16 15 16 17 17 16 18 19 19 19 20 21 23 24 26 26 27
25 25 27 28 31 32 31 28 23 19 11 14 16 18 14 12 8 7 6 8 8 7 10 13 15 17 15 15 17 17 18 18 18 18 20 22 23 25 26 28 28 28 26
31 32 32 33 33 35 34 37 33 26 18 17 17 17 21 17 13 12 8 10 11 11 12 15 14 13 14 17 17 17 16 17 18 18 19 20 20 21 21 22 23 23 22
35 36 37 39 40 38 46 45 34 31 28 25 19 17 18 22 21 16 14 13 14 14 13 16 15 13 13 13 15 15 16 17 16 16 17 17 19 21 21 20 22 23 23
36 39 40 40 41 43 45 44 41 36 41 34 30 18 15 16 20 23 22 20 19 19 19 20 18 16 15 15 15 15 15 16 17 16 17 17 18 19 18 19 20 20 20
39 39 39 42 44 45 48 50 50 50 48 39 33 30 19 19 20 23 25 24 23 24 24 23 21 20 17 19 18 16 15 15 15 15 17 17 18 21 21 22 21 21 22
46 44 42 42 46 45 47 54 60 71 63 48 33 37 28 24 21 21 21 23 25 27 27 25 25 21 20 20 20 18 18 18 18 19 20 20 19 20 20 21 23 24 25
49 49 46 44 43 42 44 49 58 25 41 49 43 39 31 27 22 24 27 24 30 30 30 28 26 25 25 26 25 24 23 23 23 23 23 23 24 24 25 24 25 26 28
52 49 42 38 42 38 38 37 29 7 28 36 31 26 27 28 26 29 32 30 19 24 17 30 35 36 32 33 30 27 27 25 24 25 25 26 27 28 29 30 30 28 31
46 38 35 34 34 34 35 34 29 23 25 23 24 28 29 30 31 32 30 35 27 21 24 26 18 19 28 36 40 31 25 24 27 27 28 30 32 31 32 33 35 34 33
36 33 32 31 31 32 34 33 31 34 35 22 34 37 33 36 38 35 40 26 22 26 22 27 31 31 31 35 37 32 31 29 30 31 32 34 33 30 30 30 33 35 37
33 32 31 28 29 27 31 34 34 29 28 23 30 30 35 23 27 29 31 29 25 28 30 32 35 36 31 30 35 37 37 35 36 35 34 36 37 35 32 33 31 32 35
33 33 30 27 29 28 30 32 34 32 27 25 26 31 29 31 32 33 32 31 33 35 36 35 28 27 32 31 41 40 40 44 36 33 31 32 32 34 34 34 36 37 38
24 24 24 23 25 25 26 29 30 32 29 28 29 30 32 32 26 31 28 29 36 34 35 31 32 29 25 36 48 41 28 24 24 28 33 34 34 35 36 38 39 42 43
21 20 22 23 24 26 23 24 25 24 26 27 27 24 22 18 31 33 20 15 23 24 21 20 20 20 25 28 28 27 29 29 29 33 33 34 36 37 39 42 44 46 48
21 21 22 21 20 20 22 23 23 20 20 23 24 24 22 22 33 30 25 23 22 25 24 23 23 22 25 29 30 32 31 32 32 36 38 39 40 42 44 46 46 47 47
20 19 20 21 21 21 23 22 22 22 20 20 17 15 21 25 27 25 25 25 22 22 19 21 23 27 30 33 34 38 37 38 37 39 41 41 43 44 45 45 46 46 47
20 17 16 14 15 16 19 17 17 21 23 22 21 20 19 24 24 24 22 20 18 28 28 27 28 30 33 35 36 37 37 38 39 40 42 42 41 42 43 43 42 42 43
18 16 15 14 16 19 19 18 18 18 19 20 22 20 21 23 28 28 24 18 22 28 33 34 33 35 35 37 35 34 34 35 36 37 38 36 36 37 38 39 43 46 48
17 18 18 17 16 18 22 23 22 23 21 20 19 24 28 26 24 24 25 25 29 34 34 33 32 33 31 34 35 34 33 33 33 34 34 34 37 40 44 46 47 48 44
13 12 12 12 13 14 16 17 20 22 22 23 24 28 25 24 27 28 31 34 34 33 32 31 29 29 30 31 31 32 32 31 33 35 38 40 43 45 44 41 39 39 42

GFSGL_500_spd_087.txt.gz
Wind_Speed
10 13 16 18 14 11 8 7 6 8 8 9 10 11 11 11 13 12 16 18 16 15 15 15 16 17 18 21 23 24 23 23 23 22 20 21 23 27 27 27 22 19 15
7 8 12 12 13 10 10 14 11 9 9 9 11 12 12 12 14 13 12 14 14 14 13 13 14 15 17 17 17 19 19 20 17 16 16 18 17 20 31 25 28 19 15
8 11 12 11 10 11 11 15 15 16 16 15 12 12 13 11 14 15 15 13 14 15 16 16 15 15 14 15 15 17 19 17 15 14 12 16 17 22 24 24 11 15 11
12 15 14 14 15 12 13 12 18 20 20 19 19 17 14 13 12 14 15 15 16 16 17 17 16 14 15 17 15 15 15 17 16 15 15 17 15 11 16 20 13 13 14
14 16 17 19 21 21 21 22 23 25 29 28 28 21 18 16 15 13 14 16 18 17 16 18 19 18 17 18 19 18 17 19 18 16 16 16 15 12 10 10 9 14 17
15 18 19 20 25 27 28 27 28 28 30 33 35 29 23 20 20 15 15 15 15 18 20 19 18 19 17 17 17 17 17 18 18 20 20 19 17 18 18 17 19 21 24
18 18 21 25 27 30 32 32 31 28 28 36 33 32 26 21 21 19 17 15 13 14 17 17 18 19 19 18 16 19 20 18 20 20 19 19 20 20 21 23 23 25 25
23 23 26 28 31 32 32 30 31 32 27 35 26 28 25 28 25 24 22 20 17 18 17 15 16 15 17 17 18 20 20 19 19 19 19 19 19 20 21 21 21 22 23
26 28 30 30 32 33 31 30 33 35 31 27 24 24 27 32 28 31 28 25 23 19 18 14 15 16 16 18 19 18 21 21 21 19 20 19 18 18 18 19 19 20 21
26 29 32 33 35 36 35 33 35 37 38 35 33 32 38 34 34 29 32 31 30 27 21 20 19 20 21 21 18 19 21 20 21 20 20 20 19 17 18 18 18 19 20
29 32 35 36 37 38 38 38 38 39 40 41 39 41 39 39 38 30 30 32 34 33 27 26 25 24 24 23 21 22 23 22 21 19 20 20 20 20 20 20 20 20 22
34 36 38 39 40 40 37 41 39 42 43 43 45 54 55 50 40 36 32 33 31 29 29 30 29 28 28 28 26 27 25 25 24 25 25 24 24 23 23 23 23 22 23
38 39 42 44 45 43 39 38 36 40 40 44 49 52 38 44 45 40 32 31 33 30 31 34 33 31 29 29 29 30 28 27 27 27 27 27 26 25 26 26 26 27 28
43 45 46 47 39 34 30 34 34 34 34 36 36 17 24 33 38 33 34 33 33 37 37 31 31 35 31 33 34 33 34 32 31 29 31 30 30 29 30 29 30 31 31
46 46 41 34 31 29 30 31 31 32 28 25 28 19 22 35 42 37 37 36 38 39 35 30 27 23 23 25 31 34 38 38 38 36 32 33 32 33 34 34 34 36 35
38 35 31 31 29 27 29 32 31 30 28 26 23 26 20 34 39 40 35 39 30 35 29 25 23 22 23 24 23 29 34 38 45 42 36 35 36 37 37 37 36 37 38
30 28 28 30 30 27 27 27 27 28 29 27 24 28 25 18 33 30 24 46 30 37 37 31 26 28 29 28 30 32 34 34 36 42 44 42 39 40 38 38 38 39 40
28 26 25 25 26 26 27 26 24 24 26 25 27 30 30 28 29 23 23 26 26 21 22 24 25 31 34 34 34 33 34 33 40 44 48 46 49 42 36 38 38 38 40
31 30 25 23 23 24 26 27 26 23 23 23 23 26 32 30 28 29 26 26 27 30 30 27 30 33 32 32 34 32 33 36 41 48 48 34 31 31 34 37 40 43 46
27 26 25 24 23 24 25 25 24 24 21 20 21 21 26 25 20 21 26 28 39 27 27 19 23 22 21 21 28 31 28 32 38 38 33 34 35 36 39 42 45 48 51
26 26 25 24 23 22 25 23 22 21 23 23 22 18 17 17 21 24 28 25 22 19 22 24 23 24 24 24 24 26 29 31 32 35 38 38 42 45 48 50 50 50 51
22 24 25 22 21 22 24 24 22 21 20 22 20 17 18 19 22 23 25 27 23 23 24 27 28 26 25 23 24 27 31 35 38 41 44 47 48 48 48 47 47 49 49
22 24 25 25 25 23 23 23 24 23 22 20 21 20 21 19 18 19 22 26 23 20 24 28 29 31 30 30 29 31 36 40 44 45 44 44 43 43 43 45 45 45 45
25 25 27 27 28 28 28 28 27 27 26 22 17 20 20 18 16 17 26 26 28 30 32 34 36 32 30 31 34 36 37 39 39 40 39 38 39 39 38 40 40 40 42
20 21 23 25 28 30 31 31 30 25 25 23 23 29 23 19 24 27 37 33 30 30 31 33 33 34 35 37 39 38 37 37 36 36 36 36 36 36 37 40 43 45 47
19 20 21 23 25 25 27 27 26 24 24 24 23 25 24 26 31 25 29 31 31 29 29 35 38 36 32 35 35 34 33 33 34 34 34 36 38 41 43 45 46 44 42

GFSGL_500_spd_093.txt.gz
Wind_Speed
17 16 13 12 3 6 6 6 4 6 7 5 6 6 7 8 7 7 9 11 12 13 18 20 22 22 22 26 27 25 27 26 25 25 25 24 23 23 22 21 19 22 24
24 18 16 15 6 2 4 7 6 5 4 4 5 4 7 3 5 7 5 9 12 14 14 17 19 19 19 22 25 26 26 25 25 24 23 22 20 17 19 18 19 24 26
29 22 18 18 12 6 4 5 8 9 9 11 7 7 9 10 6 7 13 9 8 11 12 12 14 19 21 22 23 24 23 24 24 23 22 20 18 17 14 15 16 18 14
27 24 27 24 15 11 11 7 7 10 13 15 14 10 6 11 15 12 8 11 12 11 10 12 15 18 20 23 23 25 24 23 23 23 22 20 18 18 17 15 16 16 16
30 27 27 26 19 15 14 12 12 14 16 17 17 17 16 11 13 20 18 11 11 13 13 12 14 18 19 21 23 24 24 23 24 23 21 18 17 16 14 13 13 13 12
33 28 24 28 24 22 19 19 16 17 18 20 18 17 21 19 17 15 16 16 12 12 15 16 14 17 20 23 21 23 27 26 24 25 25 23 20 20 19 19 17 16 14
37 33 28 33 31 28 24 22 20 19 22 23 18 20 22 21 23 18 13 17 21 16 15 14 15 15 18 20 22 23 26 26 24 23 24 25 24 22 22 22 21 20 20
48 35 35 38 37 31 27 23 25 25 25 24 21 20 23 24 24 24 21 19 19 23 23 17 16 16 18 17 18 20 21 24 25 23 24 24 24 24 23 22 21 21 23
72 51 44 41 37 30 28 25 28 30 27 25 24 25 26 28 26 26 27 26 27 22 25 27 24 20 20 21 19 21 20 22 21 24 25 24 24 24 23 23 23 23 23
51 48 46 44 34 31 30 28 30 30 28 28 29 32 31 31 31 30 29 30 31 31 30 30 31 29 25 26 24 23 22 22 19 21 23 24 25 26 26 26 26 25 25
46 48 46 35 33 31 32 32 31 30 31 32 33 37 36 34 34 33 31 31 32 37 35 35 33 32 32 32 30 28 28 26 24 22 24 26 25 25 26 29 29 29 28
45 40 28 28 28 31 33 33 35 33 34 38 37 39 38 38 34 31 32 34 36 40 44 40 38 35 35 33 34 34 31 30 30 29 27 27 26 26 29 29 30 30 30
25 21 24 27 31 33 34 37 39 40 39 37 35 34 34 34 32 31 33 36 45 49 55 53 50 40 36 35 36 35 35 34 33 34 35 32 32 32 33 32 31 32 33
20 23 27 29 30 33 36 38 41 39 34 30 31 30 31 35 33 32 33 36 44 42 48 48 44 42 37 34 35 37 36 34 34 36 38 36 35 35 34 33 34 35 36
20 24 27 29 32 34 37 36 33 31 30 30 31 32 34 35 33 30 31 30 27 14 23 35 40 37 39 39 38 38 35 36 35 40 46 44 40 39 39 40 42 40 39
25 27 29 32 35 33 30 28 27 30 31 29 28 31 32 32 30 30 27 28 22 17 19 30 38 38 38 40 42 41 41 41 44 46 43 47 43 44 43 42 43 44 45
24 25 27 26 27 28 29 29 29 30 31 32 32 33 34 31 30 30 26 27 27 24 27 32 34 37 37 40 43 44 43 44 39 40 37 43 42 46 43 44 47 45 43
25 27 28 30 32 32 32 32 33 32 31 33 35 34 35 35 34 30 29 28 31 32 28 27 31 39 38 40 42 48 40 41 38 35 31 34 42 44 42 41 45 43 48
26 28 29 30 31 33 34 36 38 38 37 37 37 37 35 33 34 34 31 30 29 32 33 35 37 37 34 28 30 28 34 42 39 38 36 35 38 40 39 43 45 45 47
29 30 32 32 34 36 38 38 37 37 36 37 38 37 34 33 33 33 32 32 31 33 36 37 38 37 40 40 31 30 25 28 38 34 36 35 39 42 48 48 49 49 50
31 32 32 31 33 33 35 37 39 40 39 39 39 36 33 33 30 31 34 31 30 32 34 35 40 40 37 35 39 22 17 20 26 27 27 30 31 33 35 36 38 40 39
33 34 34 33 32 33 35 36 37 38 41 40 37 36 35 35 33 33 30 25 29 26 26 24 26 26 30 32 31 24 26 28 35 38 37 39 42 42 38 37 36 36 38
28 27 27 28 29 29 30 31 33 35 36 37 36 32 33 31 31 31 30 32 33 29 28 33 34 34 26 28 30 34 29 32 29 28 32 37 38 32 31 28 29 31 32
26 28 28 28 28 28 29 29 29 29 29 29 29 27 27 25 22 26 29 30 29 24 24 25 27 31 31 30 33 35 35 30 28 31 34 29 28 30 29 29 30 31 33
25 24 23 24 24 26 26 27 27 28 26 25 22 24 21 18 21 19 21 20 19 21 23 23 28 32 33 38 36 34 32 33 34 29 30 29 30 28 31 30 28 29 30
22 22 22 23 23 23 23 23 21 19 17 16 17 16 16 15 17 18 22 24 26 27 28 31 34 35 37 37 37 37 35 33 32 35 32 29 27 27 27 27 29 31 33